Overview Statistics Trail Chart Weather Telemetry Raw packets
 

This is the latest recevied weather packets stored in our database for station/object VE3CGR-6. If no packets are shown the sender has not sent any weather packets the latest 10 day(s).

<< 1 2 3 4 >>
Time Temp. Humidity Pressure Rain* Wind** Luminosity Snow
1788618617 21.11° C 75% 1016 hPa 0 mm - - -
1788618017 21.11° C 77% 1016 hPa 0 mm - - -
1788617418 20.56° C 78% 1016 hPa 0 mm - - -
1788616818 20° C 81% 1016 hPa 0 mm - - -
1788616218 19.44° C 84% 1016 hPa 0 mm - - -
1788615617 19.44° C 87% 1015.9 hPa 0 mm - - -
1788615017 18.89° C 89% 1016 hPa 0 mm - - -
1788614417 18.33° C 91% 1015.9 hPa 0 mm - - -
1788613817 18.33° C 92% 1016.1 hPa 0 mm - - -
1788613217 17.78° C 92% 1016.1 hPa 0 mm - - -
1788612618 17.22° C 93% 1016.1 hPa 0 mm - - -
1788612017 17.22° C 93% 1016.3 hPa 0 mm - - -
1788611418 16.67° C 93% 1016.4 hPa 0 mm - - -
1788610824 16.11° C 93% 1016.3 hPa 0 mm - - -
1788610217 15.56° C 93% 1016.2 hPa 0 mm - - -
1788609618 15.56° C 93% 1016.3 hPa 0 mm - - -
1788609017 15° C 93% 1016.3 hPa 0 mm - - -
1788608417 15° C 93% 1016.3 hPa 0 mm - - -
1788607818 15° C 93% 1016.2 hPa 0 mm - - -
1788607218 15° C 95% 1016.1 hPa 0 mm - - -
1788606618 15° C 92% 1016 hPa 0 mm - - -
1788606017 15° C 92% 1015.9 hPa 0 mm - - -
1788605417 15° C 92% 1016 hPa 0 mm - - -
1788604817 14.44° C 92% 1015.9 hPa 0 mm - - -
1788604218 14.44° C 92% 1015.9 hPa 0 mm - - -

* Rain latest hour (hover to see other rain measurements)
** Current wind speed in m/s (hover to see current wind gust speed)